Regional Weather Roundup
Issued by NWS New Orleans/Baton Rouge, LA

Home | Current Version | Previous Version | Text Only | Print | Product List | Glossary On
Versions: 1 2 3 4 5 6 7 8 9 10 11 12 13 14 15 16 17 18 19 20 21 22 23 24 25 26 27 28 29 30 31 32 33 34 35 36 37 38 39 40 41 42 43 44 45 46 47 48 49 50
000
ASUS44 KLIX 300010
RWRLIX
NEW ORLEANS REGIONAL WEATHER ROUNDUP
NATIONAL WEATHER SERVICE NEW ORLEANS LA
700 PM CDT SAT AUG 29 2015

NOTE: "FAIR" INDICATES FEW OR NO CLOUDS BELOW 12,000 FEET WITH NO
      SIGNIFICANT WEATHER AND/OR OBSTRUCTIONS TO VISIBILITY.
      SKY/WX - SKY CONDITION AND SIGNIFICANT WEATHER.
      TMP - AIR TEMPERATURE.     DP    - DEWPOINT TEMPERATURE.
      RH  - RELATIVE HUMIDITY.   PRES  - PRESSURE.
      HI  - HEAT INDEX.          WCI   - WIND CHILL INDEX.

*  THESE STATIONS ARE NOT NWS OR FAA STATIONS AND ARE NOT UNDER
   NWS QUALITY CONTROL.

LAZ038-040-048-061>063-065>067-069-300100-
SOUTHEAST LOUISIANA

CITY           SKY/WX    TMP DP  RH WIND       PRES   REMARKS
N.O. AUDUBON     N/A     87  69  55 MISG        N/A
6HR MIN TEMP:  86; 6HR MAX TEMP:  94;

N.O. INTL ARPT MOCLDY    85  66  53 S8        29.99R
6HR MIN TEMP:  85; 6HR MAX TEMP:  90;

N.O. LAKEFRONT MOCLDY    84  65  52 S9        30.00R
6HR MIN TEMP:  84; 6HR MAX TEMP:  88;

N.O. DOWNTOWN*   N/A     86  66  51 S9        30.00S
6HR MIN TEMP:  86; 6HR MAX TEMP:  91;

RESERVE*       CLOUDY    86  70  59 NE6       29.98S
6HR MIN TEMP:  86; 6HR MAX TEMP:  92;

SLIDELL        CLEAR     85  69  58 S7        29.99R
6HR MIN TEMP:  85; 6HR MAX TEMP:  89;

BATON ROUGE    CLEAR     87  65  47 NE3       29.97S
6HR MIN TEMP:  86; 6HR MAX TEMP:  91;

BOOTHVILLE     CLEAR     84  67  56 S3        30.01R
6HR MIN TEMP:  84; 6HR MAX TEMP:  90;

BELLE CHASSE   PTCLDY    83  67  58 SE6       29.99S
6HR MIN TEMP:  83; 6HR MAX TEMP:  88;

BOGALUSA*      NOT AVBL
GALLIANO*      CLEAR     84  66  54 MISG      30.00R
6HR MIN TEMP:  84; 6HR MAX TEMP:  92;

NEW ROADS*       N/A     85  63  48 CALM      29.97S
6HR MIN TEMP:  85; 6HR MAX TEMP:  89;

GONZALES*        N/A     82  71  68 CALM      29.97S
6HR MIN TEMP:  82; 6HR MAX TEMP:  89;

HAMMOND*       CLEAR     84  64  51 SE6       30.00S
HOUMA*         PTCLDY    82  70  65 S5        29.99
PORT FOURCHON* CLEAR     84  66  54 S6        30.00S

$$

MSZ070-080>082-300100-
SOUTHERN MISSISSIPPI

CITY           SKY/WX    TMP DP  RH WIND       PRES   REMARKS
MCCOMB         MOCLDY    85  65  51 S6        30.00R
6HR MIN TEMP:  85; 6HR MAX TEMP:  91;

GULFPORT       PTCLDY    82  69  64 S3        30.00R
6HR MIN TEMP:  82; 6HR MAX TEMP:  89;

BILOXI         PTCLDY    82  69  64 S8        30.00R
6HR MIN TEMP:  82; 6HR MAX TEMP:  89;

PASCAGOULA     PTCLDY    82  72  71 S5        30.00R
6HR MIN TEMP:  82; 6HR MAX TEMP:  89;


$$

COASTAL OBSERVATIONS
LAKE AND NEARSHORE STATIONS

STATION/POSITION TIME  TEMP    WIND        PRES    WAVE
                       AIR SEA DIR/SP/G            HT/PER
                 (UTC) (F)     (DEG/KT/KT) (MB)    (FT/S)

OFFSHORE STATIONS

STATION/POSITION TIME  TEMP    WIND        PRES    WAVE
                       AIR SEA DIR/SP/G            HT/PER
                 (UTC) (F)     (DEG/KT/KT) (MB)    (FT/S)
64 S DAUPHIN ISL 2350   84 87  200/  4/  6 1016.3    3/ 5

$$




USA.gov is the U.S. government's official web portal to all federal, state and local government web resources and services.